Reflectivity
-1 11 -7 13 3 11 35 37 39 32 34 32 20 11 23 30 13 -16 -4 -20 -20 -20 -20 -20 -20 -20 -20 -20 -20 -20 -20 -20 -20 -20 -20 -20 -20 -20 -20 -15 -2 -20 -12 -2 -5 15 -14 -20 -20 -20 -20 -20 -20 -20
-11 -8 -5 16 11 24 29 24 31 34 33 28 14 23 25 27 -9 -20 -20 -20 -20 -20 -20 -20 -20 -20 -20 -20 -20 -20 -20 -20 -20 -20 -20 -20 -20 -20 -20 -20 -20 -6 -17 -16 11 -10 -20 -20 -20 -20 -20 -20 -20 -7
10 9 4 10 9 26 30 32 30 32 30 33 32 23 12 5 -20 -20 -20 -20 -20 -20 -20 -20 -20 -20 -20 -20 -20 -20 -20 -20 -20 -20 -20 -20 -20 -20 -20 -20 -20 -20 -20 -20 -20 -15 22 -20 -20 -20 -20 -20 -20 -20
12 12 15 4 19 25 37 39 34 34 34 32 17 11 11 -7 -20 -20 -14 -20 -20 -20 -20 -20 -20 -20 -20 -20 -20 -20 -20 -20 -20 -20 -17 -20 -20 -20 -20 -20 -20 -20 -20 -20 -20 -20 -20 -20 -20 -20 -20 -20 -20 -20
7 12 12 -16 15 32 35 31 35 34 34 30 19 8 -10 -20 2 5 -18 -20 -20 -20 -20 -20 -20 -20 -20 -20 -20 -20 -20 -20 -19 -17 -20 -20 -20 -20 -20 -20 -20 -20 -20 -20 -20 -20 -20 -20 -20 -20 -20 -20 -20 -20
3 9 4 -20 1 32 35 28 33 33 36 30 16 2 -8 -0 5 -18 -20 -20 -20 -20 -20 -20 -20 -20 -20 -20 -20 -20 -20 -20 -20 -20 -20 -2 -20 -20 -6 -20 -20 -20 -20 -20 -20 -20 -20 -20 6 -13 -20 -20 -20 -20
1 -1 -18 0 25 35 36 29 32 28 32 31 22 17 10 10 -17 -20 -16 -2 -11 -20 -20 -20 -20 -20 -20 -20 -20 -17 -20 -3 -11 -1 -17 -16 -8 -17 -11 -19 -20 -20 -20 -20 -20 -20 -20 -20 10 -10 -20 -20 -20 -20
-16 -4 -20 20 29 37 35 33 33 30 31 30 17 20 22 13 -20 -20 -20 -1 -20 -20 -20 -20 -20 -20 -20 -13 -8 -11 3 -15 -17 -8 -9 -10 -10 -16 -9 -20 -20 -18 -0 -20 -20 -20 -20 -20 -1 20 -18 -20 -20 -20
-12 -13 -20 9 25 38 34 34 33 26 31 28 27 25 15 11 -15 -10 -6 -16 -20 -20 -20 -20 -20 -20 -20 -20 -6 -16 -7 -7 -14 -4 3 2 -20 -1 -20 -20 2 22 6 1 -20 -20 -20 -19 -20 -20 -12 -20 -20 -20
-20 -20 -1 25 29 35 30 32 29 29 31 33 31 25 17 4 -20 3 -3 -20 -20 -20 -20 -20 -20 -20 -20 -20 -5 1 -19 -4 -7 -20 -11 -20 -20 -20 -20 -20 -5 -4 11 4 -20 -20 -20 -20 -20 -20 -13 -20 -20 -20
-20 4 25 27 36 35 32 30 31 29 31 32 25 27 9 0 0 15 5 -18 -20 -20 -20 -20 -20 -20 -20 -20 -20 -19 -14 -2 -20 -20 -20 -20 -20 -20 -20 -20 -20 -9 14 -6 -20 -20 -20 -20 -15 -13 16 -16 -20 -20
-3 22 28 36 31 30 29 28 24 28 27 19 17 11 11 -1 -17 7 -10 -20 -20 -20 -20 -20 -20 -20 -20 -20 -20 -13 -20 -15 -20 -20 -18 -20 -20 -19 -20 -20 -20 -15 6 -12 -20 -17 8 -8 -11 13 20 3 -14 -8
16 28 33 34 29 30 26 15 24 8 13 27 26 18 8 2 5 -17 -19 -0 -12 -20 -20 -20 -20 -20 -20 -0 -20 -20 -17 -18 -19 -20 -20 -20 -20 -20 -20 -5 7 -20 -13 -17 -20 -18 -18 -12 15 16 15 22 34 31
24 26 32 29 30 27 25 29 25 25 29 27 10 -9 6 -8 -20 4 10 -7 -20 -20 -20 -20 -20 -11 -3 -10 -3 -20 -19 -8 -6 -5 -19 -20 -20 -20 -20 -20 -20 -20 -18 0 0 -12 10 18 18 29 26 8 -2 -20
28 31 31 33 31 29 27 22 20 22 27 18 7 2 -19 2 8 13 1 -19 -20 -20 -20 -20 -20 -20 -13 -8 -16 -13 4 -20 -20 -20 -20 -20 -20 -20 -20 -20 -20 -15 -20 -18 2 12 10 8 -2 -20 -20 -20 -20 -20
30 31 33 33 30 28 26 28 30 28 23 11 4 3 8 3 11 3 -19 -20 -20 -20 -20 -20 -20 -20 -20 -20 -19 -20 -20 -20 -20 -20 -20 -20 -20 -20 -20 -20 -20 9 7 -20 -20 -20 -20 -20 -20 -20 -20 -20 -20 -20
36 37 35 31 28 32 34 31 27 17 12 7 -9 3 12 15 7 -5 -11 -20 -20 -20 -20 -20 -20 -20 -20 -20 -20 -6 -20 -20 -20 -20 -20 -20 -20 -20 -20 -20 -12 16 12 -20 -20 -13 -20 -20 1 -7 -20 -20 -20 -20
34 36 32 35 33 36 31 26 18 21 8 -13 0 18 20 11 2 -3 -16 -20 -20 -20 -20 -20 -20 -20 -20 -20 -20 -20 -20 -5 -20 -20 -20 -20 -20 -20 -20 -20 -20 8 -18 3 -20 -20 -18 6 -11 -20 -15 -6 -20 -20
31 34 32 30 33 24 25 13 13 -1 -4 13 17 16 9 -3 -16 -20 -20 -20 -20 -20 -20 -20 -20 -20 -20 -20 -20 -20 -20 -20 -20 -20 -20 -20 -20 -20 -20 -20 -20 -20 -13 -2 -20 -20 -20 -20 -7 -8 -15 -20 -20 -20
34 32 37 37 24 6 7 10 22 10 15 16 13 9 -2 -11 -20 -20 -20 -20 -20 -20 -20 -20 -20 -20 -20 -20 -20 -20 -20 -20 -20 -20 -20 -20 -20 -20 -20 -20 -20 -20 -20 -20 -20 -20 -20 -20 -20 -20 -19 -18 -20 -20
37 34 27 18 26 21 19 17 17 15 11 6 5 3 -8 -20 -5 -1 -5 -20 -20 -20 -20 -20 -20 -20 -20 -20 -20 -20 -20 -20 -20 -20 -20 -20 -20 -20 -20 -20 -20 -20 -20 -20 -20 -20 -20 -20 -20 -20 -20 -20 -20 -20
29 22 29 32 25 21 20 17 14 7 3 -0 -12 -20 -20 -20 -20 -20 -20 -20 -20 -20 -20 -20 -20 -20 -20 -20 -20 -20 -20 -20 -20 -20 -20 -20 -20 -20 -20 -20 -20 -20 -20 -20 -20 -20 -20 -20 -20 -20 -20 -20 -20 -20
31 31 30 26 19 15 12 8 5 -2 -20 -20 -20 -20 -20 -20 -20 -20 -20 -20 -20 -20 -20 -20 -20 -20 -20 -20 -20 -20 -20 -20 -20 -20 -20 -20 -20 -20 -20 -20 -20 -20 -20 -20 -20 -20 -20 -20 -20 -20 -20 -20 -20 -20
28 23 20 16 8 -0 -12 -20 -20 -20 -20 -20 -20 -20 -20 -20 -20 -20 -20 -20 -20 -20 -20 -20 -20 -20 -20 -20 -20 -20 -20 -20 -20 -20 -20 -20 -20 -20 -20 -20 -20 -20 -20 -20 -20 -20 -20 -20 -20 -20 -20 -20 -20 -20
16 17 13 5 -9 -20 -20 -20 -20 -20 -20 -20 -20 -20 -20 -20 -20 -20 -20 -20 -20 -20 -20 -20 -20 -20 -20 -20 -20 -20 -20 -20 -20 -20 -20 -20 -20 -20 -20 -20 -20 -20 -20 -20 -20 -20 -20 -20 -20 -20 -20 -20 -20 -20
9 -0 -16 -20 -20 -20 -20 -20 -20 -20 -20 -20 -20 -20 -20 -20 -20 -20 -20 -20 -20 -20 -20 -20 -20 -20 -20 -20 -20 -20 -20 -20 -20 -20 -20 -20 -20 -20 -20 -20 -20 -20 -20 -20 -20 -20 -20 -20 -20 -20 -20 -20 -20 -20
-20 -20 -20 -20 -19 -12 -14 -12 -15 -20 -20 -20 -20 -20 -20 -20 -20 -20 -20 -20 -20 -20 -20 -20 -20 -20 -20 -20 -20 -20 -20 -20 -20 -20 -20 -20 -20 -20 -20 -20 -20 -20 -20 -20 -20 -20 -20 -20 -20 -20 -20 -20 -20 -20
-20 -20 -9 -8 -5 -2 -9 -20 -20 -20 -20 -20 -20 -20 -20 -20 -20 -20 -20 -20 -20 -20 -20 -20 -20 -20 -20 -20 -20 -20 -20 -20 -20 -20 -20 -20 -20 -20 -20 -20 -20 -20 -20 -20 -20 -20 -20 -20 -20 -20 -20 -20 -20 -20
-18 -12 -20 -20 -20 -20 -20 -20 -20 -20 -20 -20 -20 -20 -20 -20 -20 -20 -20 -20 -20 -20 -20 -20 -20 -20 -20 -20 -20 -20 -20 -20 -20 -20 -20 -20 -20 -20 -20 -20 -20 -20 -20 -20 -20 -20 -20 -20 -20 -20 -20 -20 -20 -20
-2 -18 -20 -20 -20 -20 -20 -20 -20 -20 -20 -20 -20 -20 -20 -20 -20 -20 -20 -20 -20 -20 -20 -20 -20 -20 -20 -20 -20 -20 -20 -20 -20 -20 -20 -20 -20 -20 -20 -20 -20 -20 -20 -20 -20 -20 -20 -20 -20 -20 -20 -20 -20 -20
-20 -20 -20 -20 -20 -20 -20 -20 -20 -20 -20 -20 -20 -20 -20 -20 -20 -20 -20 -20 -20 -20 -20 -20 -20 -20 -20 -20 -20 -20 -20 -20 -20 -20 -20 -20 -20 -20 -20 -20 -20 -20 -20 -20 -20 -20 -20 -20 -20 -20 -20 -20 -20 -20
-20 -20 -20 -20 -20 -20 -20 -20 -20 -20 -20 -20 -20 -20 -20 -20 -20 -20 -20 -20 -20 -20 -20 -20 -20 -20 -20 -20 -20 -20 -20 -20 -20 -20 -20 -20 -20 -20 -20 -20 -20 -20 -20 -20 -20 -20 -20 -20 -20 -20 -20 -20 -20 -20
-20 -20 -20 -20 -20 -20 -20 -20 -20 -20 -20 -20 -20 -20 -20 -20 -20 -20 -20 -20 -20 -20 -20 -20 -20 -20 -20 -20 -20 -20 -20 -20 -20 -20 -15 -14 -0 -3 -20 -20 -20 -20 -20 -20 -20 -20 -20 -20 -20 -20 -20 -20 -20 -20
Wind_Speed
21 13 14 11 12 17 16 26 23 31 28 27 24 21 20 24 17 5 2 2 1 5 3 4 2 4 3 0 0 3 2 2 2 1 1 1 2 4 3 2 2 6 4 4 4 3 4 3 3 2 1 2 2 2
21 13 13 13 13 17 18 17 30 29 26 23 22 21 23 24 18 8 3 3 5 8 4 6 9 9 7 6 2 2 1 2 3 1 1 1 2 1 5 3 2 2 2 3 3 1 3 4 3 5 5 2 3 3
19 14 14 14 14 17 18 25 30 31 26 24 25 26 25 21 13 5 4 2 3 5 3 2 4 5 7 5 4 3 1 3 3 2 1 1 1 1 2 2 4 2 3 3 6 3 4 9 5 9 8 5 4 4
18 14 16 15 14 17 16 10 31 33 28 26 25 25 21 18 14 7 5 0 3 4 5 3 2 6 3 4 4 5 5 4 5 2 1 2 1 3 3 4 2 3 5 3 6 11 9 6 9 10 10 8 5 3
19 17 18 15 17 17 19 18 33 35 28 26 24 22 22 21 21 13 6 4 4 3 5 4 6 3 3 3 4 4 4 4 1 1 0 2 1 3 3 3 4 4 3 3 5 5 4 6 14 11 10 8 8 5
21 19 18 19 16 19 18 34 35 36 30 27 26 23 23 21 11 3 4 3 4 2 6 4 2 3 3 5 6 5 4 2 1 0 1 1 2 1 2 4 6 4 5 4 4 4 4 9 8 7 8 9 8 5
23 22 19 18 16 11 28 36 35 36 33 30 28 23 19 18 7 5 3 4 1 3 5 5 3 3 4 4 3 3 2 2 1 1 1 1 2 2 2 4 5 6 8 11 11 7 6 4 5 8 8 6 5 5
22 22 19 20 14 12 40 38 38 36 33 31 28 28 25 22 12 6 6 8 4 4 3 4 3 4 5 3 3 2 2 1 3 1 0 2 1 3 6 10 11 8 10 11 12 7 6 8 5 7 6 5 3 2
22 20 22 17 19 29 40 42 39 38 34 32 29 19 6 5 3 3 5 6 3 4 4 3 6 4 4 3 3 1 1 2 3 2 2 2 3 6 7 7 8 8 7 9 11 11 7 5 6 6 5 6 4 4
22 20 21 17 18 40 42 42 41 39 36 30 7 5 4 3 16 9 2 3 4 3 3 3 2 4 4 4 3 3 2 1 2 4 3 3 6 10 4 6 6 7 9 8 7 7 5 7 6 6 5 4 4 5
21 21 18 12 40 42 42 43 41 39 28 4 4 4 5 11 2 2 3 1 1 1 2 2 3 5 1 4 3 2 3 2 2 3 3 3 4 2 4 6 6 6 8 7 5 6 5 5 7 5 3 4 4 6
21 16 15 32 43 44 44 43 43 11 5 10 13 7 3 2 2 4 2 2 2 4 3 4 2 4 2 2 2 3 2 3 3 4 2 3 3 1 3 8 6 6 7 7 4 4 5 5 5 3 5 7 7 6
19 19 19 42 44 45 45 43 26 36 25 5 6 5 3 1 3 7 8 3 3 5 4 3 5 4 3 1 2 3 3 3 4 3 4 4 3 3 4 6 5 5 5 4 2 3 4 4 7 6 6 5 5 3
14 9 39 45 46 45 40 40 35 13 6 5 5 6 4 4 4 3 3 4 2 6 8 7 5 4 3 3 2 3 4 3 3 4 5 2 2 1 3 3 4 5 5 4 4 3 3 4 5 4 4 3 1 1
15 25 43 44 45 40 39 25 16 6 4 4 2 4 3 4 4 3 2 3 2 7 7 5 3 3 2 3 3 1 3 5 5 4 2 2 2 1 1 3 3 3 2 4 3 4 4 4 3 3 4 3 3 3
32 40 32 44 41 35 29 18 7 3 4 4 4 4 4 4 2 2 3 5 4 5 3 3 4 3 4 3 3 5 4 5 4 3 3 2 1 2 2 1 2 0 1 2 2 3 3 3 3 3 2 2 2 2
34 10 43 41 36 31 19 6 4 6 4 3 3 4 2 4 4 4 6 6 5 3 3 3 5 6 1 3 4 4 5 3 4 2 3 4 2 0 1 2 3 3 2 3 2 1 2 4 4 3 4 2 2 2
22 26 42 38 25 16 5 5 4 4 5 3 3 3 2 2 7 6 4 5 4 2 3 4 4 4 4 5 4 4 2 3 1 2 3 3 3 2 3 3 2 3 4 5 4 3 3 2 3 4 3 2 2 3
24 24 34 27 13 7 5 4 3 5 4 2 3 2 3 3 3 4 5 4 3 3 4 1 3 3 4 4 2 1 1 2 3 3 2 4 5 5 4 2 3 3 4 4 4 4 4 5 4 3 3 3 3 3
34 31 25 21 10 5 6 4 1 4 3 2 3 3 3 2 1 3 5 2 2 2 1 3 4 4 3 2 2 2 2 2 2 1 3 3 3 4 3 3 3 2 3 4 4 7 2 3 4 4 4 5 4 5
21 11 17 10 5 7 5 3 4 3 3 3 3 2 2 1 3 3 3 0 2 2 3 4 3 3 1 3 3 2 2 3 4 4 3 2 2 2 1 2 1 2 2 3 3 4 6 4 4 3 3 4 4 4
6 14 5 6 6 5 5 5 3 2 3 3 3 2 4 3 2 2 1 1 3 4 4 3 2 2 2 2 3 4 4 3 4 2 2 3 1 1 2 2 1 2 2 3 3 3 3 3 3 3 2 3 4 2
9 4 5 4 6 6 3 2 3 3 4 3 1 4 2 2 1 2 1 3 4 2 1 2 2 2 1 1 1 3 3 3 3 4 3 3 3 2 2 2 2 2 3 4 2 2 3 6 4 3 2 2 2 2
9 7 5 4 4 4 2 3 2 3 3 2 3 4 2 2 1 1 3 4 4 1 1 1 2 1 1 2 2 3 4 4 3 1 1 3 1 3 4 3 3 3 4 3 2 2 3 4 5 2 2 2 3 2
7 4 3 4 2 5 4 4 3 2 3 2 4 2 3 2 3 3 4 4 1 1 2 2 2 2 2 2 2 2 2 3 3 4 4 4 2 2 2 2 3 4 1 1 3 2 4 3 3 3 4 3 4 3
6 3 3 2 2 2 4 5 4 4 4 3 3 2 2 3 2 5 4 3 2 1 2 3 3 1 2 3 1 2 2 1 2 1 3 2 4 4 3 2 1 3 3 3 1 3 5 4 4 4 4 6 8 4
4 2 2 1 3 4 4 4 3 3 3 5 5 5 3 3 5 4 1 2 2 1 1 1 1 1 2 0 1 1 1 1 3 3 2 0 0 1 3 3 3 2 1 2 2 3 5 5 5 4 5 4 4 5
3 2 5 2 3 2 5 3 4 5 3 3 5 3 8 7 4 2 1 0 2 2 1 1 2 1 1 1 0 2 2 3 3 2 1 3 3 3 4 3 3 7 4 2 3 3 4 6 7 6 5 6 5 3
3 2 4 4 2 2 2 3 3 1 2 4 5 4 4 2 1 1 0 0 1 3 2 2 3 2 1 1 1 1 1 2 4 2 2 3 2 2 3 2 3 3 3 2 10 10 7 6 6 6 8 6 5 3
2 0 4 2 3 2 1 2 2 1 2 2 1 1 2 1 0 0 1 2 2 1 2 2 1 2 1 2 2 4 3 2 1 3 3 3 4 3 3 3 4 4 3 3 5 7 12 5 7 4 4 2 2 2
2 1 3 3 3 1 1 1 1 2 2 2 2 3 0 3 3 1 2 1 2 3 2 1 2 1 2 1 1 2 3 2 2 1 3 3 3 4 5 5 4 3 3 4 5 5 6 6 4 5 7 9 9 8
1 2 4 4 1 2 1 2 1 3 3 3 3 3 4 4 2 2 2 3 2 1 3 3 2 2 2 1 2 3 6 2 3 4 5 4 5 6 6 6 5 4 4 5 5 5 6 7 6 6 7 9 7 7
2 3 3 4 3 1 1 4 4 2 3 2 2 1 0 2 5 4 2 2 3 3 3 3 3 2 3 4 3 3 3 3 6 10 13 14 15 13 7 4 4 4 7 4 3 3 6 8 7 8 8 8 8 6
Wind_Direction
258 254 266 288 279 283 292 308 185 159 158 159 159 163 161 158 156 114 102 286 40 86 57 27 106 117 107 305 155 116 156 223 227 178 176 305 291 3 302 318 204 186 188 198 188 247 261 113 59 163 144 51 53 168
249 240 258 269 293 286 302 282 165 153 152 148 145 151 157 156 157 164 118 274 47 72 95 62 59 40 45 36 66 89 47 55 40 346 177 310 283 344 359 292 205 291 26 326 252 9 341 247 347 329 350 345 6 50
236 228 256 261 271 306 302 167 155 144 141 145 150 151 147 144 146 140 116 162 87 104 81 133 80 81 51 17 350 121 74 64 78 43 48 56 244 117 282 288 314 114 12 264 353 103 16 335 350 23 2 323 342 6
225 220 245 248 254 272 292 230 154 142 149 153 150 144 137 126 121 119 112 291 90 110 115 105 149 55 9 37 42 59 92 50 87 22 35 348 307 56 293 309 292 274 340 287 277 294 305 61 46 7 333 336 325 304
215 216 230 244 241 243 247 199 154 142 150 142 137 133 128 119 109 91 73 29 36 117 117 113 93 65 54 92 101 110 79 78 80 138 229 249 297 349 273 267 252 225 248 212 220 20 333 329 341 347 353 338 338 317
208 218 222 230 242 262 271 159 150 140 144 133 129 126 128 130 130 92 84 14 356 37 105 111 112 116 83 98 105 127 131 100 310 243 223 251 342 342 307 278 283 296 340 359 336 22 301 274 308 352 342 329 336 328
206 212 222 222 256 295 166 148 144 139 136 129 123 115 99 83 65 56 92 127 25 0 87 107 107 83 132 109 85 116 75 72 359 224 235 278 188 137 258 250 264 355 8 348 322 322 294 306 297 319 322 328 359 37
198 208 219 217 225 193 147 144 139 135 130 125 116 108 104 104 104 49 13 33 21 87 66 109 96 131 203 142 127 134 121 150 180 316 270 235 180 217 251 253 278 336 327 297 290 265 242 283 299 299 308 324 291 114
190 202 212 220 214 168 148 140 137 131 127 121 119 110 80 43 72 97 129 77 66 77 112 123 139 173 181 125 93 92 175 190 120 230 218 153 212 227 235 282 334 315 302 296 304 306 308 305 298 297 303 314 299 147
185 200 203 217 198 150 144 138 136 133 130 129 90 68 95 51 120 139 28 40 28 360 19 101 93 120 184 149 152 146 187 241 208 198 142 216 257 254 329 357 313 301 292 290 279 277 327 325 309 321 342 7 17 102
190 191 211 223 148 144 140 138 136 134 134 72 93 74 96 152 86 39 79 92 160 71 137 112 87 127 281 155 139 215 152 166 235 175 213 225 258 187 17 323 321 297 296 308 298 303 332 340 305 306 326 41 55 70
183 197 204 160 145 142 140 139 140 129 111 118 104 101 131 143 84 104 83 93 199 175 131 119 119 86 102 50 135 150 196 153 246 130 221 245 236 201 354 326 318 310 312 332 18 6 352 12 351 36 61 53 41 39
183 190 175 148 143 141 140 141 123 123 115 102 81 98 142 294 102 180 180 201 190 155 157 136 118 113 120 161 137 156 190 213 119 222 236 221 134 36 320 334 324 321 325 325 16 35 36 36 45 44 58 49 49 37
202 193 152 144 142 141 135 131 137 127 89 95 131 130 190 170 217 163 165 134 119 118 130 123 121 127 132 177 162 194 196 154 235 233 213 144 100 28 314 353 331 342 341 0 29 38 50 57 55 52 55 29 1 37
197 167 144 140 137 131 135 133 100 58 72 99 130 123 150 94 58 74 80 91 88 140 132 94 77 121 141 145 197 214 170 234 219 223 133 145 151 175 38 344 331 357 16 48 40 50 59 69 45 46 35 26 22 23
152 137 136 131 130 130 124 96 54 71 57 59 66 94 109 90 99 125 127 116 147 116 86 71 123 154 172 183 157 210 211 226 231 157 160 151 94 48 104 270 219 17 316 107 72 24 7 22 21 1 335 2 2 9
125 124 131 125 125 119 104 75 72 53 82 83 66 52 48 68 117 125 138 142 129 100 111 131 139 188 143 177 215 217 214 196 155 192 160 180 175 129 158 185 212 190 220 193 157 158 336 332 342 322 304 298 290 299
113 126 122 121 115 105 52 45 80 74 76 66 93 87 25 16 124 136 129 133 117 114 120 164 120 166 185 196 225 234 129 164 207 159 174 152 155 168 186 210 220 220 213 222 220 205 218 263 299 278 271 232 265 270
122 119 117 112 103 89 89 56 33 87 63 87 67 48 48 56 13 95 102 84 72 99 101 102 138 190 215 224 185 222 108 160 175 199 198 180 178 178 185 182 198 213 245 260 243 233 225 217 219 242 272 240 242 255
100 91 89 74 61 68 80 72 77 88 89 90 67 58 46 53 2 98 104 80 94 96 88 198 207 203 196 203 140 137 143 137 115 159 242 222 181 137 199 206 238 262 264 271 255 260 243 258 233 232 233 230 233 243
81 72 57 60 56 54 70 66 62 57 107 80 99 75 79 24 92 127 126 35 63 206 238 227 205 223 129 124 111 109 176 177 203 201 205 169 190 154 225 248 231 274 264 290 290 288 283 257 256 234 215 244 241 241
63 58 67 36 68 65 73 13 87 83 69 98 104 96 117 120 113 78 325 211 230 231 201 200 201 157 119 183 224 198 224 248 243 248 125 121 183 234 248 214 114 275 278 261 238 251 263 262 269 245 224 248 264 247
99 66 57 54 73 56 75 283 85 26 102 132 88 92 108 125 36 323 201 237 256 251 126 114 114 74 120 343 339 270 226 198 236 239 244 211 211 193 161 225 192 200 283 286 233 239 262 284 294 286 248 265 230 253
41 57 57 67 74 100 104 65 79 101 104 161 125 107 131 127 214 105 241 242 237 153 70 184 119 49 360 1 259 240 229 189 216 303 168 124 199 253 204 202 199 217 216 246 268 281 285 277 297 305 268 246 234 224
79 23 73 75 45 114 110 127 123 119 117 155 114 133 172 167 146 187 235 264 237 235 194 145 141 178 184 290 300 291 326 138 169 198 252 172 158 23 352 273 242 246 187 50 337 325 302 300 281 270 257 246 253 258
75 13 46 111 115 123 152 125 155 141 123 119 84 119 173 139 127 235 226 222 222 174 159 166 167 160 272 200 268 355 304 314 93 137 289 163 166 154 184 213 287 311 23 61 11 301 296 295 287 283 286 291 296 301
112 124 77 28 84 107 89 61 46 108 122 151 161 161 130 143 230 245 263 14 99 352 39 23 53 118 150 123 49 4 331 36 172 196 200 189 312 163 157 188 244 234 340 326 290 273 287 295 290 280 282 285 253 242
94 148 136 152 88 26 120 118 145 178 167 152 126 163 170 183 222 240 179 311 83 11 26 27 35 60 76 72 318 343 335 324 297 289 310 37 38 53 56 49 24 341 327 295 269 259 261 282 288 278 267 270 275 259
82 114 100 65 58 69 140 152 168 135 106 141 140 168 215 221 197 117 356 97 46 50 42 61 336 358 33 37 4 33 46 36 65 18 287 270 297 310 354 344 305 293 282 272 309 309 286 264 252 246 249 247 244 230
144 31 95 99 126 128 93 358 76 9 32 66 38 63 25 358 246 147 34 33 54 135 166 153 262 75 127 93 318 342 8 22 89 150 188 239 239 269 293 280 275 273 274 287 297 305 313 316 307 321 310 285 254 246
94 117 86 67 94 46 37 302 338 49 45 53 4 89 19 309 324 47 83 89 87 68 74 16 341 335 94 28 69 13 327 316 118 157 230 242 252 261 262 258 248 238 237 255 259 266 280 303 287 283 283 278 271 266
60 96 130 111 113 289 308 57 63 73 15 49 11 20 359 29 304 277 218 113 96 162 201 163 154 256 215 200 212 234 269 265 267 248 248 250 254 250 255 259 259 253 252 255 245 247 255 259 268 262 269 276 265 253
76 55 53 103 87 78 300 85 35 47 21 50 5 50 78 163 237 260 290 176 169 181 194 211 214 207 212 220 215 235 264 230 268 309 319 318 315 314 320 308 276 261 270 258 271 266 272 268 267 265 263 263 261 256